THOR ABLESTAR DEB, 558

Orbit data source: Space-Track

THOR ABLESTAR DEB, 558 is space debris in LEO originally from a launch on Thu, 29 Jun 1961 UTC launched from the Air Force Eastern Test Range (AFETR). Debris objects in space refer to the collection of defunct objects orbiting the Earth. Examples of debris include non-operational satellites, rocket bodies, and fragments generated from explosions, collisions, or faulty payload assembly.

Loading next visibility...
Identifier
558, 1961-015GQ
Orbit
LEO
Country
Flag of USUS
Related business
Manufacturer
Unknown
Mission
Spacecraft
Bus & Motor
Unknown
Mass
Unknown
Launch date (UTC)
1961-06-29 (65 years ago)
Launch vehicle
Unknown
Launch site
Air Force Eastern Test Range (AFETR)
Object type
Payload
Rocket body
Debris
Shape & HBR
Unknown shape, 0.2 m
Radar Cross Section
Small (<0.1 m²)

Expand to show TLE details & history
Last TLE update: 1 day ago

TLE from 1 day ago
0 THOR ABLESTAR DEB
1 00558U 61015GQ  26036.53418465  .00000158  00000-0  55454-3 0  9994
2 00558  65.6984  78.4425 0467916 153.0133 331.9287 12.86493973 32625
Epoch: 2026-02-05T12:49Z
TLE epoch observation values (Epoch: 2026-02-05T12:49:13.553Z)
Latitude
50.5176°
Longitude
-102.59107°
Altitude
1,008.901 km
Speed
7.501 km/s
True Right ascension
15h 01m 36s
True Declination
50° 21' 16"
Sunlit
Object was in daylight at epoch
Visualization orbit readout
Latitude
Unknown
Longitude
Unknown
Altitude
Unknown
Speed
Unknown
Apparent Right ascension
Unknown
Apparent Declination
Unknown
Sunlit
N/A
Visualization observer readout
Local Sidereal Time
19:15:26
Azimuth
Unknown
Elevation
Unknown
Doppler factor
Unknown
Orbital elements
Apogee altitude
1,673.993 km
Perigee altitude
954.132 km
Semi-major axis
7,692.199 km
Eccentricity
0.04679
Inclination
65.6984°
RAAN
78.4425°
Arg. of periapsis
153.0133°
True anomaly
329.26952°
Mean anomaly
331.9287°
Eccentric anomaly
330.61314°
Mean motion
3.21712 °/min
Orbital period
111.9 mins
BSTAR
0.00055454
Loading maneuver chart data...
Computing Atmospheric mass density...

Documentation

Showing up to 5 results
|